Погода в Гловно

Польша     51°57′43″N   19°42′42″E
темп.,
°C
ветер,
м/с
пор.,
м/с
влажн.,
%
обл.,
%
осадки,
мм/ч
давл.,
гПа
погр.,
м
1 марта, пн
пн101:000зсз369776 0.0 1034179
04:000зсз349746 0.0 103493
07:000з349736 0.0 103590
10:00+4з348024 0.0 1035330
13:00+7з446914 0.0 1035535
16:00+7зюз46730 0.0 1034473
19:00+4зюз35870 0.0 103493
22:00+3зюз48900 0.0 1034154
2 марта, вт
вт201:00+2зюз49900 0.0 1034170
04:00+2зюз510900 0.0 1033209
07:00+1з511900 0.0 1033228
10:00+6з610750 0.0 1032401
13:00+10зсз69590 0.0 1032607
16:00+9зсз58610 0.0 1031689
19:00+5зсз35800 0.0 103285
22:00+4сз23890 0.0 103329
3 марта, ср
ср301:00+2ссв12930 0.0 103322
04:00+1в11930 0.0 103222
07:00+1юв11920 0.0 103222
10:00+6ю12760 0.0 1031303
13:00+9юз23620 0.0 1029641
16:00+10юз24610 0.0 1025376
19:00+6ююз34700 0.0 102438
22:00+5юз44695 0.0 102264
4 марта, чт
чт401:00+4юз487923 0.0 1019136
04:00+3зюз511868 0.0 1017219
07:00+2зюз5109133 0.0 1016267
10:00+6з698191 0.0 1014477
13:00+7з598196 0.0 1013780
16:00+7зсз487485 0.1 1011791
19:00+6зсз248393 0.1 1011131
22:00+4ссз2289100 0.1 101143
5 марта, пт
пт501:00+3св2389100 0.1 1010107
04:00+2ссв4697100 0.0 1010265
07:00−1св6894100 0.3 1011414
10:00−1св81192100 1.4 1012677
13:00+2ссв6860100 1.7 10141377
16:00+2с5847100 0.0 10171569
19:00−1с5116861 0.0 1020437
22:00−3ссз4106646 0.0 1023487